User: anonymous   Login
Location: Newark
(49.8900°N, 17.8822°E)
Time: 00:19:23
(UTC+00:00)
Language:

Envisat - Orbit

View from above orbital plane
View from above orbital plane
View from above satellite
View from above satellite

Ground track
Ground track

The orbit data is extracted from the following two-line orbital elements,

1 27386U 02009A   19296.66836694  .00000007  00000-0  15866-4 0  9999
2 27386  98.1448 311.1696 0001194  94.3012  15.3744 14.37960449924447
Epoch (UTC): 23 October 2019 16:02:26
Eccentricity: 0.0001194
inclination: 98.1448°
perigee height: 764 km
apogee height: 766 km
right ascension of ascending node: 311.1696°
argument of perigee: 94.3012°
revolutions per day: 14.37960449
mean anomaly at epoch: 15.3744°
orbit number at epoch: 92444

The dashed part of the orbit path shows where the satellite is in the earth's shadow,  

DLR